Showing default

TIROS 10, 1430

Orbit data source: Space-Track

TIROS 10, 1430 is a payload satellite owned by ESSA (US) in SSO that was launched on Fri, 02 Jul 1965 UTC via a THOR DELTA C launch vehicle from the Air Force Eastern Test Range (AFETR). Payload-class satellites include a variety of spacecraft equipped with specific instruments for various scientific and technological missions. These include communications satellites like Starlink; space stations such as the ISS; scientific satellites like the Hubble; Earth observation satellites from companies like Planet Labs, Umbra, and HawkEye 360; GPS; miniature CubeSats for education and research; and military/defense satellites.

Loading next visibility...
Identifier
1430, 1965-051A
Orbit
SSO
Last TLE update
19 hours ago
Origin
Manufacturer
RCA/East Windsor
Mission
Non-operational Civil Weather
Bus & Motor
TIROS I, Unknown motor
Mass
127 kg wet, 127 kg dry
Launch date (UTC)
1965-07-02 (60 years ago)
Launch vehicle
THOR DELTA C
Launch site
Air Force Eastern Test Range (AFETR)
Object type
Payload
Rocket body
Debris
Shape & HBR
Cyl, 1.07 m
Radar Cross Section
0.920 m², Medium (>0.1 m² and < 1m²)

Expand to show TLE details & history

TLE from 19 hours ago
0 TIROS 10
1 01430U 65051A   25185.91972305  .00000112  00000-0  47273-4 0  9993
2 01430  98.4707 302.5306 0056221  42.9085 317.6470 14.41422043145887
Epoch: 2025-07-04T22:04Z
TLE epoch observation values (Epoch: 2025-07-04T22:04:24.071Z)
Latitude
-0.00001°
Longitude
48.2651°
Altitude
727.221 km
Speed
7.507 km/s
True Right ascension
20h 10m 07s
True Declination
0° 00' 00"
Sunlit
Object was in full shadow at epoch
Visualization orbit readout
Latitude
-22.30206°
Longitude
-134.42301°
Altitude
800.282 km
Speed
7.432 km/s
Apparent Right ascension
11h 09m 17s
Apparent Declination
-57° 14' 24"
Sunlit
Object is in daylight
Visualization observer readout
Local Sidereal Time
05:15:16
Azimuth
140.408° SSE
Elevation
-31.922°
Doppler factor
1
Orbital elements
Apogee altitude
791.003 km
Perigee altitude
710.842 km
Semi-major axis
7,129.059 km
Eccentricity
0.00562
Inclination
98.4707°
RAAN
302.5306°
Arg. of periapsis
42.9085°
True anomaly
Unknown
Mean anomaly
317.647°
Eccentric anomaly
Unknown
Mean motion
3.60574 °/min
Orbital period
99.84 mins
BSTAR
0.000047273
Loading maneuver chart data...
Loading SW <> Apogee altitude chart data...
Loading historical data...
Loading historical data...
Loading historical data...
Loading historical data...
Loading historical data...
Loading historical data...
Loading historical data...
Other satellites on launch #51 in the year 1965 (1965-07-02 UTC)

TIROS 10 Visibility forecast

Observer location: undefined°, undefined°

Span
Click to sort rows by Start time (UTC) header in descending order
Start Az.
Max El. time (UTC)
Max El. Az.
Max El.
End time (UTC)
End Az.
9 mins2025-07-05 20:17:55.261Z24.12° NE2025-07-05 20:22:55.261Z116.458° SE38.025°2025-07-05 20:26:55.261Z175.249° S
5 mins2025-07-05 21:58:55.261Z324.323° NNW2025-07-05 22:00:55.261Z295.763° NW17.488°2025-07-05 22:03:55.261Z256.875° W
7 mins2025-07-06 07:31:55.261Z149.274° SSE2025-07-06 07:34:55.261Z68.667° E42.036°2025-07-06 07:38:55.261Z354.487° N
|